Regional Weather Roundup
Issued by NWS Goodland, KS

Home | Current Version | Previous Version | Graphics & Text | Print | Product List | Glossary On
Versions: 1 2 3 4 5 6 7 8 9 10 11 12 13 14 15 16 17 18 19 20 21 22 23 24 25 26 27 28 29 30 31 32 33 34 35 36 37 38 39 40 41 42 43 44 45 46 47 48 49 50
000
ASUS43 KGLD 191108
RWRGLD

GOODLAND FORECAST AREA HOURLY WEATHER ROUNDUP
NATIONAL WEATHER SERVICE GOODLAND KS
400 AM MST SUN FEB 19 2017

...OFFICIAL OBSERVATIONS...

CITY           SKY/WX    TMP DP  RH WIND       PRES   REMARKS
GOODLAND KS    CLOUDY    46  35  65 S18       29.69S
HILL CITY KS   MOCLDY    46  44  93 S3        29.80S
IMPERIAL NEB   CLOUDY    50  33  52 S16       29.67F
MCCOOK NEB     CLOUDY    48  38  68 S9        29.73F
AKRON CO       CLEAR     50  27  40 S16       29.64S
BURLINGTON CO  CLOUDY    47  34  60 S22       29.68F
LIMON CO       CLOUDY    42  28  57 S9        29.72R
$$

...UNOFFICIAL OBSERVATIONS...

CITY           SKY/WX    TMP DP  RH WIND       PRES   REMARKS
LENORA KS        N/A     43  32  65 S8          N/A
NORTON KS      CLEAR     45  37  76 S3        29.77S
SHARON SPRINGS   N/A     44  37  77 S15         N/A
TRENTON NEB      N/A     49  32  52 CALM        N/A
KIT CARSON CO    N/A     41  32  69 CALM        N/A
YUMA CO        FAIR      41  28  60 S13       29.64S
$$



USA.gov is the U.S. government's official web portal to all federal, state and local government web resources and services.